Banff, Canada 16 day weather forecast

Slopes altitude range 1630 m - 2730m

Number of lifts: 26 Pistes: 120km

In some cases the lift and piste totals shown are for the ski domain (e.g. Three Valleys) rather than individual resort (e.g. Courchevel)

Overview

The 16 day weather forecast is fully updated 4 times every day.

    • Tue 17 JUL 2018
    • Tue 17
    • 10C 13C
    • Wed 18 JUL 2018
    • Wed 18
    • 11C 14C
    • Thu 19 JUL 2018
    • Thu 19
    • 8C 10C
    • Fri 20 JUL 2018
    • Fri 20
    • 8C 10C
    • Sat 21 JUL 2018
    • Sat 21
    • 6C 10C
    • Sun 22 JUL 2018
    • Sun 22
    • 3C 7C
    • Mon 23 JUL 2018
    • Mon 23
    • 3C 6C
    • Tue 24 JUL 2018
    • Tue 24
    • 2C 6C
    • Wed 25 JUL 2018
    • Wed 25
    • 8C 9C
    • Thu 26 JUL 2018
    • Thu 26
    • 7C 10C
    • Fri 27 JUL 2018
    • Fri 27
    • 9C 19C
    • Sat 28 JUL 2018
    • Sat 28
    • 8C 21C
    • Sun 29 JUL 2018
    • Sun 29
    • 11C 23C
    • Mon 30 JUL 2018
    • Mon 30
    • 12C 26C
    • Tue 31 JUL 2018
    • Tue 31
    • 11C 25C
    • Wed 01 AUG 2018
    • Wed 01
    • 10C 23C

Date:

Time Type 0°C level Temp Chill Snow Cloud Speed Gust Dir Press
3:00 4429m 18°C 18_3 0cm 0% 3mph 5mph 1014mB
6:00 4453m 13°C 13_2 0cm 0% 2mph 3mph 1016mB
9:00 4376m 11°C 11_3 0cm 0% 3mph 3mph 1017mB
12:00 4360m 13°C 13_2 0cm 0% 2mph 3mph 1017mB
15:00 4362m 19°C 19_2 0cm 0% 2mph 2mph 1016mB
18:00 4358m 24°C 24_3 0cm 0% 3mph 5mph 1014mB
21:00 4393m 24°C 24_6 0cm 0% 6mph 7mph 1012mB
0:00 4398m 23°C 23_4 0cm 41% 4mph 8mph 1011mB
3:00 4340m 19°C 19_1 0cm 100% 1mph 2mph 1011mB
6:00 4330m 13°C 13_4 0cm 69% 4mph 4mph 1012mB
9:00 4229m 12°C 12_4 0cm 96% 4mph 4mph 1013mB
12:00 4176m 14°C 14_4 0cm 97% 4mph 5mph 1013mB
15:00 4123m 16°C 16_5 0cm 59% 5mph 6mph 1012mB
18:00 4101m 19°C 19_5 0cm 76% 5mph 6mph 1011mB
21:00 4136m 20°C 20_7 0cm 76% 7mph 8mph 1011mB
0:00 4119m 19°C 19_3 0cm 87% 3mph 9mph 1011mB
3:00 4062m 16°C 16_2 0cm 98% 2mph 3mph 1012mB
6:00 3970m 10°C 10_2 0cm 50% 2mph 2mph 1015mB
9:00 3894m 9°C 9_2 0cm 31% 2mph 2mph 1016mB
12:00 3821m 10°C 10_2 0cm 26% 2mph 3mph 1017mB
15:00 3838m 14°C 14_3 0cm 90% 3mph 4mph 1017mB
18:00 3894m 18°C 18_3 0cm 72% 3mph 4mph 1016mB
21:00 3938m 18°C 18_3 0cm 28% 3mph 7mph 1014mB
0:00 3960m 16°C 16_3 0cm 63% 3mph 5mph 1014mB
3:00 3972m 13°C 13_3 0cm 99% 3mph 4mph 1014mB
6:00 3945m 10°C 10_1 0cm 94% 1mph 2mph 1016mB
9:00 3916m 9°C 9_3 0cm 43% 3mph 4mph 1015mB
12:00 3891m 10°C 10_4 0cm 25% 4mph 5mph 1015mB
15:00 3947m 14°C 14_4 0cm 0% 4mph 6mph 1014mB
18:00 3902m 19°C 19_5 0cm 0% 5mph 7mph 1012mB
21:00 4039m 19°C 19_8 0cm 2% 8mph 11mph 1010mB
0:00 4143m 19°C 19_11 0cm 9% 11mph 15mph 1008mB
3:00 4107m 16°C 16_7 0cm 0% 7mph 11mph 1008mB
6:00 4043m 10°C 10_7 0cm 0% 7mph 8mph 1010mB
9:00 3835m 8°C 8_5 0cm 0% 5mph 6mph 1010mB
12:00 3674m 10°C 10_5 0cm 0% 5mph 6mph 1012mB
15:00 3476m 12°C 12_5 0cm 0% 5mph 7mph 1012mB
18:00 3480m 16°C 16_10 0cm 0% 10mph 16mph 1011mB
21:00 3604m 16°C 16_17 0cm 1% 17mph 20mph 1011mB
0:00 3561m 16°C 16_15 0cm 0% 15mph 17mph 1012mB
3:00 3424m 12°C 12_5 0cm 10% 5mph 8mph 1014mB
6:00 3335m 6°C 6_4 0cm 10% 4mph 4mph 1017mB
9:00 3249m 5°C 5_5 0cm 14% 5mph 5mph 1017mB
12:00 3164m 7°C 7_5 0cm 15% 5mph 6mph 1018mB
15:00 3082m 8°C 8_6 0cm 85% 6mph 7mph 1017mB
18:00 3023m 11°C 11_6 0cm 92% 6mph 7mph 1016mB
21:00 3338m 11°C 11_7 0cm 91% 7mph 11mph 1017mB
0:00 3364m 11°C 11_5 0cm 94% 5mph 7mph 1018mB
3:00 3349m 10°C 10_3 0cm 100% 3mph 4mph 1020mB
6:00 3321m 6°C 6_2 0cm 87% 2mph 2mph 1022mB
9:00 3324m 4°C 4_2 0cm 64% 2mph 2mph 1024mB
12:00 3196m 6°C 6_2 0cm 32% 2mph 2mph 1025mB
15:00 3129m 9°C 9_3 0cm 0% 3mph 3mph 1024mB
18:00 3190m 12°C 12_3 0cm 19% 3mph 4mph 1023mB
21:00 3250m 11°C 11_4 0cm 100% 4mph 5mph 1022mB
0:00 3279m 11°C 11_5 0cm 100% 5mph 6mph 1023mB
3:00 3232m 8°C 8_5 0cm 99% 5mph 7mph 1024mB
6:00 3200m 6°C 6_4 0cm 98% 4mph 4mph 1026mB
9:00 3250m 3°C 3_2 0cm 26% 2mph 3mph 1026mB
12:00 3264m 6°C 6_2 0cm 13% 2mph 2mph 1026mB
15:00 3183m 13°C 13_1 0cm 0% 1mph 2mph 1025mB
18:00 3143m 17°C 17_4 0cm 0% 4mph 3mph 1023mB
21:00 3305m 16°C 16_6 0cm 45% 6mph 4mph 1022mB
0:00 3461m 16°C 16_5 0cm 38% 5mph 4mph 1021mB
3:00 3655m 12°C 12_3 0cm 4% 3mph 4mph 1022mB
6:00 3560m 8°C 8_3 0cm 6% 3mph 3mph 1024mB
9:00 3561m 8°C 8_3 0cm 22% 3mph 4mph 1024mB
12:00 3590m 9°C 9_4 0cm 23% 4mph 5mph 1023mB
15:00 3565m 17°C 17_1 0cm 7% 1mph 2mph 1022mB
18:00 3582m 19°C 19_4 0cm 30% 4mph 3mph 1020mB
21:00 3585m 19°C 19_5 0cm 55% 5mph 5mph 1019mB
0:00 3675m 18°C 18_4 0cm 77% 4mph 5mph 1019mB
3:00 3691m 11°C 11_1 0cm 100% 1mph 2mph 1020mB
6:00 3675m 10°C 10_2 0cm 100% 2mph 3mph 1022mB
9:00 3566m 8°C 8_2 0cm 75% 2mph 3mph 1023mB
12:00 3576m 10°C 10_2 0cm 53% 2mph 3mph 1024mB
15:00 3613m 14°C 14_1 0cm 4% 1mph 2mph 1023mB
18:00 3699m 19°C 19_4 0cm 2% 4mph 3mph 1022mB
21:00 3718m 19°C 19_5 0cm 32% 5mph 5mph 1020mB
0:00 3946m 19°C 19_6 0cm 36% 6mph 6mph 1019mB
Afternoon 0.161458mm 1.9375 3839m 19°C 19_6 0cm 22% 6mph 7mph 1018mB
Morning 0mm 0 3961m 9°C 9_3 0cm 40% 3mph 7mph 1013mB
Afternoon 0.0677083mm 0.8125 3948m 21°C 21_1 0cm 40% 1mph 1mph 1019mB
Morning 0mm 0 4200m 8°C 8_4 0cm 14% 4mph 7mph 1014mB
Afternoon 0mm 0 4290m 23°C 23_5 0cm 9% 5mph 6mph 1016mB
Morning 0mm 0 4463m 11°C 11_1 0cm 21% 1mph 7mph 1008mB
Afternoon 0.0208333mm 0.25 4409m 26°C 26_4 0cm 15% 4mph 4mph 1012mB
Morning 0mm 0 4350m 12°C 12_5 0cm 25% 5mph 10mph 1009mB
Afternoon 0.125mm 1.5 4408m 25°C 25_2 0cm 28% 2mph 3mph 1012mB
Morning 0.0104167mm 0 3988m 10°C 10_5 0cm 88% 5mph 12mph 1009mB
Afternoon 0mm 0 3993m 23°C 23_7 0cm 1% 7mph 11mph 1013mB
Morning 0mm 0 3965m 10°C 10_10 0cm 4% 10mph 13mph 1009mB

16 day outlook at a glance

Forecast issued: 17/07/2018 12:20:51

Chat

Your comments and questions. In a resort? Let us know what it's like!


Characters left 250

For terms and conditions see Readers Comments on the Cookie and privacy policy page.